Location: Goldmont Forest
(38.0233°N, 120.2524°W)
Time: 08:15:06
(UTC+00:00)

IRIDIUM 106 - Pass Details

Date: 08 November 2024
Orbit: 776 x 779 km, 86.4° (Epoch: 06 December)

Event Time Altitude Azimuth Distance (km) Brightness Sun altitude
Rises 04:23:04 0° 223° (SW) 3,249 7.9 -41.1°
Reaches altitude 10° 04:26:13 10° 243° (WSW) 2,326 7.2 -41.7°
Enters shadow 04:27:10 13° 252° (WSW) 2,123 7.0 -41.9°
Exits shadow 04:36:01 - 344° (NNW) 3,231 7.8 -43.6°
Sets 04:36:11 0° 344° (NNW) 3,283 7.9 -43.6°
